Flag for Isle of Man Weather past 2 weeks in Ramsey, Isle of Man

Now
52 °F

Passing clouds.


Feels Like: 47 °F
Forecast: 47 / 52 °F
Wind: 15 mph from West

Location: Isle Of Man / Ronaldsway Airport

Current Time: May 28, 2015 at 8:03:28 PM

Latest Report: May 28, 2015 at 7:20 PM


Visibility: N/A

Pressure: 29.83 "Hg

Humidity: 67%

Dew point: 41 °F

Location of RamseyLocation

Historic Weather in Ramsey — Graph

°F

Ramsey temperature yesterday

Maximum temperature yesterday: 52 °F (at 10:20 AM)
Minimum temperature yesterday: 46 °F (at 2:50 AM)
Average temperature yesterday: 50 °F

Past Weeks' High & Low Weather Summary

 TemperatureHumidityPressure
High59 °F (May 22, 4:20 PM)100% (May 15, 5:20 PM)30.33 "Hg (May 15, 5:20 PM)
Low43 °F (May 13, 9:50 PM)51% (May 16, 12:20 PM)29.45 "Hg (May 18, 6:50 PM)
Average51 °F77%30.04 "Hg
* Reported May 13 6:20 PM — May 28 6:50 PM, Ramsey, Weather by CustomWeather, © 2015

Note: Actual official high and low records may vary slightly from our data, if they occured in-between our weather recording intervals... More about our weather records

Advertising

Ramsey weather history for previous 24 hours

 ConditionsComfort  
Time TempWeatherWind HumidityBarometerVisibility
6:50 PM
Thu, May 28
54 °FPassing clouds.14 mph67%29.86 "HgN/A
6:20 PM54 °FPassing clouds.16 mph58%29.86 "HgN/A
5:50 PM52 °FPassing clouds.17 mph72%29.86 "HgN/A
5:20 PM52 °FPassing clouds.16 mph72%29.86 "HgN/A
4:50 PM54 °FPassing clouds.20 mph67%29.86 "HgN/A
4:20 PM54 °FScattered clouds.16 mph67%29.89 "HgN/A
3:50 PM54 °FPassing clouds.15 mph67%29.89 "HgN/A
3:20 PM52 °FScattered showers. Partly sunny.18 mph72%29.89 "HgN/A
2:50 PM54 °FPartly sunny.17 mph67%29.89 "HgN/A
2:20 PM54 °FPassing clouds.20 mph67%29.89 "HgN/A
1:50 PM55 °FScattered clouds.21 mph63%29.89 "HgN/A
1:20 PM54 °FScattered clouds.20 mph63%29.89 "HgN/A
12:50 PM54 °FScattered clouds.22 mph63%29.89 "HgN/A
12:20 PM54 °FScattered clouds.22 mph63%29.89 "HgN/A
11:50 AM52 °FPassing clouds.21 mph67%29.89 "HgN/A
11:20 AM54 °FScattered clouds.21 mph67%29.89 "HgN/A
10:50 AM52 °FPassing clouds.20 mph67%29.89 "HgN/A
10:20 AM50 °FPassing clouds.21 mph71%29.89 "HgN/A
9:50 AM50 °FPassing clouds.20 mph71%29.89 "HgN/A
9:20 AM50 °FPassing clouds.18 mph76%29.89 "HgN/A
8:50 AM50 °FPassing clouds.20 mph76%29.89 "HgN/A
8:20 AM50 °FPassing clouds.20 mph71%29.89 "HgN/A
7:50 AM48 °FPassing clouds.18 mph76%29.89 "HgN/A
7:20 AM48 °FScattered clouds.18 mph76%29.89 "HgN/A
6:50 AM46 °FScattered clouds.18 mph82%29.86 "HgN/A
6:20 AM48 °FScattered clouds.17 mph76%29.86 "HgN/A
5:50 AM46 °FPassing clouds.17 mph76%29.86 "HgN/A
5:20 AM46 °FPassing clouds.16 mph76%29.86 "HgN/A
4:50 AM46 °FPassing clouds.16 mph76%29.86 "HgN/A
3:50 AM46 °FPassing clouds.14 mph82%29.86 "HgN/A
2:50 AM48 °FPassing clouds.16 mph76%29.86 "HgN/A
1:50 AM48 °FPassing clouds.12 mph82%29.86 "HgN/A
12:50 AM50 °FPassing clouds.14 mph76%29.86 "HgN/A
11:50 PM
Wed, May 27
50 °FPassing clouds.17 mph71%29.86 "HgN/A
10:50 PM52 °FPassing clouds.18 mph62%29.86 "HgN/A
9:50 PM52 °FPassing clouds.17 mph77%29.83 "HgN/A
9:20 PM52 °FPassing clouds.15 mph82%29.83 "HgN/A
8:50 PM52 °FScattered showers. Broken clouds.17 mph94%29.83 "HgN/A
8:20 PM52 °FScattered showers. Scattered clouds.18 mph94%29.83 "HgN/A
Weather by CustomWeather, © 2015

See weather overviewHow to use our weather pages